| time (UTC) | temp F | wind direction | speed knots | gust knots | rain 1hr in | rain 24hr in | rain mn in | humidity % | barometer mb |
| 20260506184550 | 53 | 57 | 2.6 | 7.8 | 0.00 | 0.00 | 0.00 | 78 | 1011.1 |
| 20260506183042 | 53 | 30 | 2.6 | 9.6 | 0.00 | 0.00 | 0.00 | 78 | 1010.9 |
| 20260506181540 | 53 | 47 | 2.6 | 7.8 | 0.00 | 0.00 | 0.00 | 79 | 1010.8 |
| 20260506180038 | 54 | 326 | 3.5 | 11.3 | 0.00 | 0.00 | 0.00 | 79 | 1010.5 |
| 20260506174537 | 54 | 46 | 3.5 | 8.7 | 0.00 | 0.00 | 0.00 | 80 | 1010.4 |
| 20260506173052 | 54 | 12 | 3.5 | 10.4 | 0.00 | 0.00 | 0.00 | 79 | 1010.3 |
| 20260506171535 | 54 | 54 | 3.5 | 10.4 | 0.00 | 0.00 | 0.00 | 78 | 1010.3 |
| 20260506170039 | 55 | 48 | 3.5 | 12.2 | 0.00 | 0.00 | 0.00 | 78 | 1010.1 |
| 20260506164535 | 55 | 315 | 3.5 | 8.7 | 0.00 | 0.00 | 0.00 | 77 | 1010.1 |
| 20260506163037 | 55 | 49 | 4.3 | 10.4 | 0.00 | 0.00 | 0.00 | 77 | 1009.9 |
| 20260506161533 | 55 | 74 | 3.5 | 12.2 | 0.00 | 0.00 | 0.00 | 77 | 1010.0 |
| 20260506160033 | 55 | 355 | 2.6 | 11.3 | 0.00 | 0.00 | 0.00 | 77 | 1010.1 |
| 20260506154531 | 56 | 24 | 3.5 | 9.6 | 0.00 | 0.00 | 0.00 | 77 | 1010.0 |
| 20260506153028 | 57 | 73 | 4.3 | 10.4 | 0.00 | 0.00 | 0.00 | 76 | 1010.0 |
| 20260506151529 | 56 | 5 | 3.5 | 9.6 | 0.00 | 0.00 | 0.00 | 77 | 1010.0 |
| 20260506150027 | 56 | 5 | 4.3 | 11.3 | 0.00 | 0.00 | 0.00 | 78 | 1010.0 |
| 20260506144532 | 55 | 5 | 3.5 | 9.6 | 0.00 | 0.00 | 0.00 | 77 | 1010.0 |
| 20260506143026 | 56 | 57 | 3.5 | 11.3 | 0.00 | 0.00 | 0.00 | 77 | 1010.0 |
| 20260506141524 | 56 | 37 | 4.3 | 9.6 | 0.00 | 0.00 | 0.00 | 76 | 1010.0 |
| 20260506140025 | 57 | 43 | 3.5 | 10.4 | 0.00 | 0.00 | 0.00 | 74 | 1010.1 |
| 20260506134522 | 58 | 49 | 3.5 | 11.3 | 0.00 | 0.00 | 0.00 | 74 | 1010.2 |
| 20260506133022 | 58 | 46 | 4.3 | 10.4 | 0.00 | 0.00 | 0.00 | 74 | 1010.1 |
| 20260506131529 | 58 | 13 | 4.3 | 12.2 | 0.00 | 0.00 | 0.00 | 74 | 1010.0 |
| 20260506130023 | 58 | 360 | 3.5 | 11.3 | 0.00 | 0.00 | 0.00 | 72 | 1009.9 |
| 20260506124519 | 58 | 337 | 6.1 | 13.9 | 0.00 | 0.00 | 0.00 | 71 | 1009.8 |
| 20260506123018 | 58 | 52 | 4.3 | 13.0 | 0.00 | 0.00 | 0.00 | 72 | 1009.7 |
| 20260506121517 | 58 | 34 | 4.3 | 13.0 | 0.00 | 0.00 | 0.00 | 71 | 1009.6 |
| 20260506120019 | 58 | 44 | 4.3 | 11.3 | 0.00 | 0.00 | 0.00 | 71 | 1009.6 |
| 20260506114516 | 58 | 56 | 4.3 | 13.9 | 0.00 | 0.00 | 0.00 | 71 | 1009.6 |
| 20260506113010 | 57 | 38 | 1.7 | 12.2 | 0.00 | 0.00 | 0.00 | 73 | 1009.6 |
| 20260506111508 | 57 | 72 | 3.5 | 11.3 | 0.00 | 0.00 | 0.00 | 74 | 1009.5 |
| 20260506110010 | 56 | 34 | 3.5 | 8.7 | 0.00 | 0.00 | 0.00 | 74 | 1009.7 |
| 20260506104507 | 56 | 55 | 3.5 | 9.6 | 0.00 | 0.00 | 0.00 | 74 | 1009.7 |
| 20260506103009 | 57 | 49 | 3.5 | 9.6 | 0.00 | 0.00 | 0.00 | 74 | 1009.7 |
| 20260506101512 | 57 | 50 | 5.2 | 14.8 | 0.00 | 0.00 | 0.00 | 74 | 1009.4 |
| 20260506100004 | 57 | 9 | 4.3 | 11.3 | 0.00 | 0.00 | 0.00 | 74 | 1009.4 |
| 20260506094503 | 57 | 44 | 3.5 | 12.2 | 0.00 | 0.00 | 0.00 | 74 | 1009.4 |
| 20260506093058 | 56 | 14 | 3.5 | 11.3 | 0.00 | 0.00 | 0.00 | 76 | 1009.4 |
| 20260506091554 | 55 | 49 | 5.2 | 11.3 | 0.00 | 0.00 | 0.00 | 76 | 1009.4 |
| 20260506090049 | 54 | 30 | 4.3 | 11.3 | 0.00 | 0.00 | 0.00 | 78 | 1009.2 |
| 20260506084610 | 53 | 97 | 3.5 | 10.4 | 0.00 | 0.00 | 0.00 | 80 | 1009.2 |
| 20260506083041 | 52 | 15 | 5.2 | 12.2 | 0.00 | 0.00 | 0.00 | 80 | 1009.2 |
| 20260506081546 | 51 | 73 | 3.5 | 11.3 | 0.00 | 0.00 | 0.00 | 81 | 1009.1 |
| 20260506073042 | 51 | 328 | 4.3 | 13.9 | 0.00 | 0.00 | 0.00 | 80 | 1008.9 |
| 20260506071536 | 51 | 333 | 5.2 | 11.3 | 0.00 | 0.00 | 0.00 | 80 | 1008.9 |
| 20260506061527 | 51 | 175 | 5.2 | 13.0 | 0.00 | 0.00 | 0.00 | 79 | 1008.7 |
| 20260506044538 | 50 | 65 | 3.5 | 11.3 | 0.00 | 0.00 | 0.00 | 81 | 1008.6 |
| 20260506043012 | 50 | 38 | 5.2 | 10.4 | 0.00 | 0.00 | 0.00 | 81 | 1008.6 |
| 20260506041509 | 50 | 13 | 4.3 | 12.2 | 0.00 | 0.00 | 0.00 | 81 | 1008.6 |
| 20260506040007 | 50 | 33 | 6.1 | 12.2 | 0.00 | 0.00 | 0.00 | 81 | 1008.6 |
| 20260506034513 | 50 | 96 | 3.5 | 10.4 | 0.00 | 0.00 | 0.00 | 81 | 1008.8 |
| 20260506033007 | 50 | 26 | 3.5 | 10.4 | 0.00 | 0.00 | 0.00 | 81 | 1008.8 |
| 20260506031503 | 50 | 5 | 4.3 | 13.0 | 0.00 | 0.00 | 0.00 | 80 | 1008.8 |
| 20260506030100 | 50 | 295 | 4.3 | 10.4 | 0.00 | 0.00 | 0.00 | 80 | 1008.9 |
| 20260506024559 | 50 | 63 | 3.5 | 8.7 | 0.00 | 0.00 | 0.00 | 80 | 1009.0 |
| 20260506023111 | 51 | 71 | 3.5 | 8.7 | 0.00 | 0.00 | 0.00 | 79 | 1009.1 |
| 20260506021555 | 50 | 30 | 4.3 | 10.4 | 0.00 | 0.00 | 0.00 | 77 | 1009.1 |
| 20260506020054 | 50 | 13 | 4.3 | 11.3 | 0.00 | 0.00 | 0.00 | 77 | 1009.1 |
| 20260506014553 | 50 | 25 | 4.3 | 12.2 | 0.00 | 0.00 | 0.00 | 76 | 1009.2 |
| 20260506013050 | 50 | 26 | 4.3 | 10.4 | 0.00 | 0.00 | 0.00 | 77 | 1009.2 |
| 20260506011601 | 50 | 46 | 3.5 | 11.3 | 0.00 | 0.00 | 0.00 | 77 | 1009.2 |
| 20260506010054 | 50 | 350 | 3.5 | 10.4 | 0.00 | 0.00 | 0.00 | 77 | 1009.3 |
| 20260506004603 | 50 | 97 | 4.3 | 13.9 | 0.00 | 0.00 | 0.00 | 77 | 1009.4 |
| 20260506003056 | 50 | 26 | 2.6 | 11.3 | 0.00 | 0.00 | 0.00 | 77 | 1009.4 |
| 20260506001541 | 50 | 52 | 4.3 | 12.2 | 0.00 | 0.00 | 0.00 | 77 | 1009.6 |
| 20260506000040 | 50 | 36 | 2.6 | 11.3 | 0.00 | 0.00 | 0.00 | 77 | 1009.7 |
| 20260505234556 | 50 | 351 | 5.2 | 13.0 | 0.00 | 0.00 | 0.00 | 77 | 1009.8 |
| 20260505233037 | 50 | 34 | 5.2 | 13.0 | 0.00 | 0.00 | 0.00 | 76 | 1009.7 |
| 20260505231534 | 51 | 115 | 4.3 | 12.2 | 0.00 | 0.00 | 0.00 | 77 | 1009.8 |
| 20260505230038 | 51 | 39 | 5.2 | 9.6 | 0.00 | 0.00 | 0.00 | 77 | 1009.9 |
| 20260505224531 | 51 | 37 | 4.3 | 13.0 | 0.00 | 0.00 | 0.00 | 78 | 1010.0 |
| 20260505223025 | 51 | 33 | 5.2 | 13.9 | 0.00 | 0.00 | 0.00 | 77 | 1010.0 |
| 20260505221527 | 51 | 90 | 5.2 | 13.0 | 0.00 | 0.00 | 0.00 | 77 | 1010.0 |
| 20260505220029 | 51 | 42 | 4.3 | 13.9 | 0.00 | 0.00 | 0.00 | 77 | 1010.0 |
| 20260505214523 | 51 | 81 | 5.2 | 14.8 | 0.00 | 0.00 | 0.00 | 77 | 1010.1 |
| 20260505213017 | 51 | 35 | 6.1 | 12.2 | 0.00 | 0.00 | 0.00 | 79 | 1010.1 |
| 20260505211515 | 51 | 55 | 6.1 | 13.0 | 0.00 | 0.00 | 0.00 | 78 | 1010.1 |
| 20260505210012 | 52 | 50 | 5.2 | 13.9 | 0.00 | 0.00 | 0.00 | 80 | 1010.1 |
| 20260505204511 | 51 | 32 | 5.2 | 13.0 | 0.00 | 0.00 | 0.00 | 80 | 1010.2 |
| 20260505203009 | 51 | 355 | 5.2 | 14.8 | 0.00 | 0.00 | 0.00 | 80 | 1010.2 |
| 20260505201511 | 51 | 48 | 4.3 | 13.0 | 0.00 | 0.00 | 0.00 | 81 | 1010.1 |
| 20260505200007 | 52 | 5 | 6.1 | 13.9 | 0.00 | 0.00 | 0.00 | 82 | 1010.0 |
| 20260505194511 | 52 | 322 | 6.1 | 13.9 | 0.00 | 0.00 | 0.00 | 81 | 1010.0 |
| 20260505193007 | 52 | 37 | 5.2 | 17.4 | 0.00 | 0.00 | 0.00 | 81 | 1009.9 |
| 20260505191501 | 52 | 294 | 5.2 | 12.2 | 0.00 | 0.00 | 0.00 | 81 | 1009.8 |
| 20260505190100 | 52 | 26 | 4.3 | 11.3 | 0.00 | 0.00 | 0.00 | 80 | 1009.7 |